Data supplied by UK-AIR on 25/3/2009
All Data GMT hour ending 
Status: R =Ratified P=Provisional,P*=As supplied
,,Aberdeen Union Street Roadside,,,,,,,,,,,,,,,,,,,,,,,
Date,time,"Nitric oxide",status,unit,"Nitrogen dioxide",status,unit,"Nitrogen oxides as nitrogen dioxide",status,unit
 
01-01-2008,01:00,110,R,ugm-3,59,R,ugm-3,227,R,ugm-3
01-01-2008,02:00,69,R,ugm-3,50,R,ugm-3,155,R,ugm-3
01-01-2008,03:00,71,R,ugm-3,57,R,ugm-3,166,R,ugm-3
01-01-2008,04:00,55,R,ugm-3,55,R,ugm-3,139,R,ugm-3
01-01-2008,05:00,114,R,ugm-3,65,R,ugm-3,239,R,ugm-3
01-01-2008,06:00,21,R,ugm-3,44,R,ugm-3,76,R,ugm-3
01-01-2008,07:00,10,R,ugm-3,32,R,ugm-3,48,R,ugm-3
01-01-2008,08:00,5,R,ugm-3,23,R,ugm-3,31,R,ugm-3
01-01-2008,09:00,5,R,ugm-3,25,R,ugm-3,32,R,ugm-3
01-01-2008,10:00,4,R,ugm-3,21,R,ugm-3,27,R,ugm-3
01-01-2008,11:00,3,R,ugm-3,11,R,ugm-3,15,R,ugm-3
01-01-2008,12:00,3,R,ugm-3,10,R,ugm-3,13,R,ugm-3
01-01-2008,13:00,3,R,ugm-3,10,R,ugm-3,13,R,ugm-3
01-01-2008,14:00,3,R,ugm-3,10,R,ugm-3,13,R,ugm-3
01-01-2008,15:00,4,R,ugm-3,15,R,ugm-3,21,R,ugm-3
01-01-2008,16:00,6,R,ugm-3,15,R,ugm-3,25,R,ugm-3
01-01-2008,17:00,4,R,ugm-3,15,R,ugm-3,21,R,ugm-3
01-01-2008,18:00,5,R,ugm-3,17,R,ugm-3,25,R,ugm-3
01-01-2008,19:00,4,R,ugm-3,11,R,ugm-3,17,R,ugm-3
01-01-2008,20:00,4,R,ugm-3,11,R,ugm-3,17,R,ugm-3
01-01-2008,21:00,3,R,ugm-3,10,R,ugm-3,13,R,ugm-3
01-01-2008,22:00,3,R,ugm-3,10,R,ugm-3,13,R,ugm-3
01-01-2008,23:00,1,R,ugm-3,8,R,ugm-3,10,R,ugm-3
01-01-2008,24:00,1,R,ugm-3,8,R,ugm-3,10,R,ugm-3
02-01-2008,01:00,1,R,ugm-3,8,R,ugm-3,10,R,ugm-3
02-01-2008,02:00,0,R,ugm-3,4,R,ugm-3,4,R,ugm-3
02-01-2008,03:00,0,R,ugm-3,4,R,ugm-3,4,R,ugm-3
02-01-2008,04:00,0,R,ugm-3,4,R,ugm-3,4,R,ugm-3
02-01-2008,05:00,0,R,ugm-3,4,R,ugm-3,4,R,ugm-3
02-01-2008,06:00,0,R,ugm-3,4,R,ugm-3,4,R,ugm-3
02-01-2008,07:00,3,R,ugm-3,10,R,ugm-3,13,R,ugm-3
02-01-2008,08:00,3,R,ugm-3,8,R,ugm-3,11,R,ugm-3
02-01-2008,09:00,3,R,ugm-3,10,R,ugm-3,13,R,ugm-3
02-01-2008,10:00,4,R,ugm-3,10,R,ugm-3,15,R,ugm-3
02-01-2008,11:00,6,R,ugm-3,13,R,ugm-3,23,R,ugm-3
02-01-2008,12:00,8,R,ugm-3,13,R,ugm-3,25,R,ugm-3
02-01-2008,13:00,8,R,ugm-3,13,R,ugm-3,25,R,ugm-3
02-01-2008,14:00,5,R,ugm-3,11,R,ugm-3,19,R,ugm-3
02-01-2008,15:00,6,R,ugm-3,13,R,ugm-3,23,R,ugm-3
02-01-2008,16:00,6,R,ugm-3,13,R,ugm-3,23,R,ugm-3
02-01-2008,17:00,6,R,ugm-3,13,R,ugm-3,23,R,ugm-3
02-01-2008,18:00,9,R,ugm-3,17,R,ugm-3,31,R,ugm-3
02-01-2008,19:00,8,R,ugm-3,13,R,ugm-3,25,R,ugm-3
02-01-2008,20:00,5,R,ugm-3,13,R,ugm-3,21,R,ugm-3
02-01-2008,21:00,6,R,ugm-3,15,R,ugm-3,25,R,ugm-3
02-01-2008,22:00,10,R,ugm-3,23,R,ugm-3,38,R,ugm-3
02-01-2008,23:00,5,R,ugm-3,11,R,ugm-3,19,R,ugm-3
02-01-2008,24:00,4,R,ugm-3,10,R,ugm-3,15,R,ugm-3
03-01-2008,01:00,3,R,ugm-3,8,R,ugm-3,11,R,ugm-3
03-01-2008,02:00,5,R,ugm-3,17,R,ugm-3,25,R,ugm-3
03-01-2008,03:00,6,R,ugm-3,21,R,ugm-3,31,R,ugm-3
03-01-2008,04:00,1,R,ugm-3,11,R,ugm-3,13,R,ugm-3
03-01-2008,05:00,4,R,ugm-3,17,R,ugm-3,23,R,ugm-3
03-01-2008,06:00,20,R,ugm-3,42,R,ugm-3,73,R,ugm-3
03-01-2008,07:00,31,R,ugm-3,48,R,ugm-3,96,R,ugm-3
03-01-2008,08:00,35,R,ugm-3,48,R,ugm-3,101,R,ugm-3
03-01-2008,09:00,51,R,ugm-3,52,R,ugm-3,130,R,ugm-3
03-01-2008,10:00,46,R,ugm-3,52,R,ugm-3,122,R,ugm-3
03-01-2008,11:00,39,R,ugm-3,59,R,ugm-3,118,R,ugm-3
03-01-2008,12:00,46,R,ugm-3,44,R,ugm-3,115,R,ugm-3
03-01-2008,13:00,41,R,ugm-3,57,R,ugm-3,120,R,ugm-3
03-01-2008,14:00,50,R,ugm-3,71,R,ugm-3,147,R,ugm-3
03-01-2008,15:00,28,R,ugm-3,53,R,ugm-3,96,R,ugm-3
03-01-2008,16:00,29,R,ugm-3,57,R,ugm-3,101,R,ugm-3
03-01-2008,17:00,48,R,ugm-3,65,R,ugm-3,138,R,ugm-3
03-01-2008,18:00,31,R,ugm-3,50,R,ugm-3,97,R,ugm-3
03-01-2008,19:00,31,R,ugm-3,57,R,ugm-3,105,R,ugm-3
03-01-2008,20:00,21,R,ugm-3,38,R,ugm-3,71,R,ugm-3
03-01-2008,21:00,26,R,ugm-3,48,R,ugm-3,88,R,ugm-3
03-01-2008,22:00,20,R,ugm-3,34,R,ugm-3,65,R,ugm-3
03-01-2008,23:00,31,R,ugm-3,50,R,ugm-3,97,R,ugm-3
03-01-2008,24:00,10,R,ugm-3,29,R,ugm-3,44,R,ugm-3
04-01-2008,01:00,11,R,ugm-3,29,R,ugm-3,46,R,ugm-3
04-01-2008,02:00,13,R,ugm-3,32,R,ugm-3,52,R,ugm-3
04-01-2008,03:00,14,R,ugm-3,38,R,ugm-3,59,R,ugm-3
04-01-2008,04:00,10,R,ugm-3,25,R,ugm-3,40,R,ugm-3
04-01-2008,05:00,9,R,ugm-3,25,R,ugm-3,38,R,ugm-3
04-01-2008,06:00,10,R,ugm-3,34,R,ugm-3,50,R,ugm-3
04-01-2008,07:00,11,R,ugm-3,19,R,ugm-3,36,R,ugm-3
04-01-2008,08:00,20,R,ugm-3,23,R,ugm-3,53,R,ugm-3
04-01-2008,09:00,24,R,ugm-3,27,R,ugm-3,63,R,ugm-3
04-01-2008,10:00,26,R,ugm-3,27,R,ugm-3,67,R,ugm-3
04-01-2008,11:00,30,R,ugm-3,32,R,ugm-3,78,R,ugm-3
04-01-2008,12:00,34,R,ugm-3,36,R,ugm-3,88,R,ugm-3
04-01-2008,13:00,30,R,ugm-3,34,R,ugm-3,80,R,ugm-3
04-01-2008,14:00,16,R,ugm-3,29,R,ugm-3,53,R,ugm-3
04-01-2008,15:00,21,R,ugm-3,36,R,ugm-3,69,R,ugm-3
04-01-2008,16:00,14,R,ugm-3,27,R,ugm-3,48,R,ugm-3
04-01-2008,17:00,15,R,ugm-3,31,R,ugm-3,53,R,ugm-3
04-01-2008,18:00,23,R,ugm-3,34,R,ugm-3,69,R,ugm-3
04-01-2008,19:00,8,R,ugm-3,31,R,ugm-3,42,R,ugm-3
04-01-2008,20:00,6,R,ugm-3,19,R,ugm-3,29,R,ugm-3
04-01-2008,21:00,6,R,ugm-3,19,R,ugm-3,29,R,ugm-3
04-01-2008,22:00,5,R,ugm-3,21,R,ugm-3,29,R,ugm-3
04-01-2008,23:00,5,R,ugm-3,21,R,ugm-3,29,R,ugm-3
04-01-2008,24:00,8,R,ugm-3,27,R,ugm-3,38,R,ugm-3
05-01-2008,01:00,6,R,ugm-3,31,R,ugm-3,40,R,ugm-3
05-01-2008,02:00,6,R,ugm-3,32,R,ugm-3,42,R,ugm-3
05-01-2008,03:00,5,R,ugm-3,29,R,ugm-3,36,R,ugm-3
05-01-2008,04:00,5,R,ugm-3,25,R,ugm-3,32,R,ugm-3
05-01-2008,05:00,1,R,ugm-3,19,R,ugm-3,21,R,ugm-3
05-01-2008,06:00,1,R,ugm-3,13,R,ugm-3,15,R,ugm-3
05-01-2008,07:00,5,R,ugm-3,19,R,ugm-3,27,R,ugm-3
05-01-2008,08:00,5,R,ugm-3,17,R,ugm-3,25,R,ugm-3
05-01-2008,09:00,10,R,ugm-3,19,R,ugm-3,34,R,ugm-3
05-01-2008,10:00,11,R,ugm-3,27,R,ugm-3,44,R,ugm-3
05-01-2008,11:00,19,R,ugm-3,27,R,ugm-3,55,R,ugm-3
05-01-2008,12:00,14,R,ugm-3,21,R,ugm-3,42,R,ugm-3
05-01-2008,13:00,20,R,ugm-3,40,R,ugm-3,71,R,ugm-3
05-01-2008,14:00,19,R,ugm-3,25,R,ugm-3,53,R,ugm-3
05-01-2008,15:00,19,R,ugm-3,31,R,ugm-3,59,R,ugm-3
05-01-2008,16:00,21,R,ugm-3,50,R,ugm-3,82,R,ugm-3
05-01-2008,17:00,46,R,ugm-3,44,R,ugm-3,115,R,ugm-3
05-01-2008,18:00,46,R,ugm-3,57,R,ugm-3,128,R,ugm-3
05-01-2008,19:00,25,R,ugm-3,48,R,ugm-3,86,R,ugm-3
05-01-2008,20:00,9,R,ugm-3,29,R,ugm-3,42,R,ugm-3
05-01-2008,21:00,20,R,ugm-3,27,R,ugm-3,57,R,ugm-3
05-01-2008,22:00,15,R,ugm-3,32,R,ugm-3,55,R,ugm-3
05-01-2008,23:00,19,R,ugm-3,25,R,ugm-3,53,R,ugm-3
05-01-2008,24:00,38,R,ugm-3,44,R,ugm-3,101,R,ugm-3
06-01-2008,01:00,25,R,ugm-3,44,R,ugm-3,82,R,ugm-3
06-01-2008,02:00,75,R,ugm-3,59,R,ugm-3,174,R,ugm-3
06-01-2008,03:00,18,R,ugm-3,31,R,ugm-3,57,R,ugm-3
06-01-2008,04:00,8,R,ugm-3,21,R,ugm-3,32,R,ugm-3
06-01-2008,05:00,14,R,ugm-3,32,R,ugm-3,53,R,ugm-3
06-01-2008,06:00,5,R,ugm-3,17,R,ugm-3,25,R,ugm-3
06-01-2008,07:00,16,R,ugm-3,44,R,ugm-3,69,R,ugm-3
06-01-2008,08:00,39,R,ugm-3,50,R,ugm-3,109,R,ugm-3
06-01-2008,09:00,21,R,ugm-3,44,R,ugm-3,76,R,ugm-3
06-01-2008,10:00,38,R,ugm-3,48,R,ugm-3,105,R,ugm-3
06-01-2008,11:00,44,R,ugm-3,48,R,ugm-3,115,R,ugm-3
06-01-2008,12:00,58,R,ugm-3,52,R,ugm-3,139,R,ugm-3
06-01-2008,13:00,49,R,ugm-3,50,R,ugm-3,124,R,ugm-3
06-01-2008,14:00,83,R,ugm-3,53,R,ugm-3,180,R,ugm-3
06-01-2008,15:00,55,R,ugm-3,61,R,ugm-3,145,R,ugm-3
06-01-2008,16:00,54,R,ugm-3,67,R,ugm-3,149,R,ugm-3
06-01-2008,17:00,61,R,ugm-3,80,R,ugm-3,174,R,ugm-3
06-01-2008,18:00,66,R,ugm-3,73,R,ugm-3,174,R,ugm-3
06-01-2008,19:00,105,R,ugm-3,124,R,ugm-3,285,R,ugm-3
06-01-2008,20:00,84,R,ugm-3,80,R,ugm-3,208,R,ugm-3
06-01-2008,21:00,74,R,ugm-3,65,R,ugm-3,178,R,ugm-3
06-01-2008,22:00,33,R,ugm-3,61,R,ugm-3,111,R,ugm-3
06-01-2008,23:00,36,R,ugm-3,63,R,ugm-3,118,R,ugm-3
06-01-2008,24:00,70,R,ugm-3,82,R,ugm-3,189,R,ugm-3
07-01-2008,01:00,24,R,ugm-3,63,R,ugm-3,99,R,ugm-3
07-01-2008,02:00,20,R,ugm-3,29,R,ugm-3,59,R,ugm-3
07-01-2008,03:00,10,R,ugm-3,34,R,ugm-3,50,R,ugm-3
07-01-2008,04:00,14,R,ugm-3,42,R,ugm-3,63,R,ugm-3
07-01-2008,05:00,6,R,ugm-3,17,R,ugm-3,27,R,ugm-3
07-01-2008,06:00,8,R,ugm-3,27,R,ugm-3,38,R,ugm-3
07-01-2008,07:00,30,R,ugm-3,46,R,ugm-3,92,R,ugm-3
07-01-2008,08:00,68,R,ugm-3,82,R,ugm-3,185,R,ugm-3
07-01-2008,09:00,166,R,ugm-3,94,R,ugm-3,348,R,ugm-3
07-01-2008,10:00,94,R,ugm-3,96,R,ugm-3,239,R,ugm-3
07-01-2008,11:00,120,R,ugm-3,159,R,ugm-3,342,R,ugm-3
07-01-2008,12:00,90,R,ugm-3,107,R,ugm-3,244,R,ugm-3
07-01-2008,13:00,104,R,ugm-3,94,R,ugm-3,252,R,ugm-3
07-01-2008,14:00,119,R,ugm-3,97,R,ugm-3,279,R,ugm-3
07-01-2008,15:00,184,R,ugm-3,118,R,ugm-3,399,R,ugm-3
07-01-2008,16:00,265,R,ugm-3,157,R,ugm-3,562,R,ugm-3
07-01-2008,17:00,216,R,ugm-3,128,R,ugm-3,458,R,ugm-3
07-01-2008,18:00,143,R,ugm-3,136,R,ugm-3,353,R,ugm-3
07-01-2008,19:00,120,R,ugm-3,101,R,ugm-3,285,R,ugm-3
07-01-2008,20:00,151,R,ugm-3,126,R,ugm-3,357,R,ugm-3
07-01-2008,21:00,89,R,ugm-3,88,R,ugm-3,223,R,ugm-3
07-01-2008,22:00,31,R,ugm-3,86,R,ugm-3,134,R,ugm-3
07-01-2008,23:00,21,R,ugm-3,40,R,ugm-3,73,R,ugm-3
07-01-2008,24:00,6,R,ugm-3,27,R,ugm-3,36,R,ugm-3
08-01-2008,01:00,4,R,ugm-3,13,R,ugm-3,19,R,ugm-3
08-01-2008,02:00,3,R,ugm-3,13,R,ugm-3,17,R,ugm-3
08-01-2008,03:00,1,R,ugm-3,8,R,ugm-3,10,R,ugm-3
08-01-2008,04:00,0,R,ugm-3,6,R,ugm-3,6,R,ugm-3
08-01-2008,05:00,3,R,ugm-3,13,R,ugm-3,17,R,ugm-3
08-01-2008,06:00,3,R,ugm-3,15,R,ugm-3,19,R,ugm-3
08-01-2008,07:00,21,R,ugm-3,63,R,ugm-3,96,R,ugm-3
08-01-2008,08:00,51,R,ugm-3,55,R,ugm-3,134,R,ugm-3
08-01-2008,09:00,61,R,ugm-3,80,R,ugm-3,174,R,ugm-3
08-01-2008,10:00,50,R,ugm-3,61,R,ugm-3,138,R,ugm-3
08-01-2008,11:00,58,R,ugm-3,76,R,ugm-3,164,R,ugm-3
08-01-2008,12:00,79,R,ugm-3,65,R,ugm-3,185,R,ugm-3
08-01-2008,13:00,80,R,ugm-3,141,R,ugm-3,264,R,ugm-3
08-01-2008,14:00,98,R,ugm-3,136,R,ugm-3,285,R,ugm-3
08-01-2008,15:00,59,R,ugm-3,69,R,ugm-3,159,R,ugm-3
08-01-2008,16:00,29,R,ugm-3,63,R,ugm-3,107,R,ugm-3
08-01-2008,17:00,33,R,ugm-3,42,R,ugm-3,92,R,ugm-3
08-01-2008,18:00,23,R,ugm-3,36,R,ugm-3,71,R,ugm-3
08-01-2008,19:00,14,R,ugm-3,29,R,ugm-3,50,R,ugm-3
08-01-2008,20:00,9,R,ugm-3,34,R,ugm-3,48,R,ugm-3
08-01-2008,21:00,6,R,ugm-3,21,R,ugm-3,31,R,ugm-3
08-01-2008,22:00,4,R,ugm-3,17,R,ugm-3,23,R,ugm-3
08-01-2008,23:00,5,R,ugm-3,11,R,ugm-3,19,R,ugm-3
08-01-2008,24:00,3,R,ugm-3,10,R,ugm-3,13,R,ugm-3
09-01-2008,01:00,1,R,ugm-3,4,R,ugm-3,6,R,ugm-3
09-01-2008,02:00,0,R,ugm-3,4,R,ugm-3,4,R,ugm-3
09-01-2008,03:00,1,R,ugm-3,2,R,ugm-3,4,R,ugm-3
09-01-2008,04:00,1,R,ugm-3,4,R,ugm-3,6,R,ugm-3
09-01-2008,05:00,1,R,ugm-3,2,R,ugm-3,4,R,ugm-3
09-01-2008,06:00,3,R,ugm-3,4,R,ugm-3,8,R,ugm-3
09-01-2008,07:00,9,R,ugm-3,17,R,ugm-3,31,R,ugm-3
09-01-2008,08:00,16,R,ugm-3,29,R,ugm-3,53,R,ugm-3
09-01-2008,09:00,28,R,ugm-3,65,R,ugm-3,107,R,ugm-3
09-01-2008,10:00,44,R,ugm-3,38,R,ugm-3,105,R,ugm-3
09-01-2008,11:00,84,R,ugm-3,55,R,ugm-3,183,R,ugm-3
09-01-2008,12:00,64,R,ugm-3,69,R,ugm-3,166,R,ugm-3
09-01-2008,13:00,48,R,ugm-3,90,R,ugm-3,162,R,ugm-3
09-01-2008,14:00,109,R,ugm-3,92,R,ugm-3,258,R,ugm-3
09-01-2008,15:00,56,R,ugm-3,73,R,ugm-3,159,R,ugm-3
09-01-2008,16:00,76,R,ugm-3,107,R,ugm-3,223,R,ugm-3
09-01-2008,17:00,130,R,ugm-3,88,R,ugm-3,287,R,ugm-3
09-01-2008,18:00,101,R,ugm-3,92,R,ugm-3,246,R,ugm-3
09-01-2008,19:00,64,R,ugm-3,65,R,ugm-3,162,R,ugm-3
09-01-2008,20:00,10,R,ugm-3,31,R,ugm-3,46,R,ugm-3
09-01-2008,21:00,10,R,ugm-3,23,R,ugm-3,38,R,ugm-3
09-01-2008,22:00,6,R,ugm-3,19,R,ugm-3,29,R,ugm-3
09-01-2008,23:00,15,R,ugm-3,19,R,ugm-3,42,R,ugm-3
09-01-2008,24:00,10,R,ugm-3,17,R,ugm-3,32,R,ugm-3
10-01-2008,01:00,3,R,ugm-3,13,R,ugm-3,17,R,ugm-3
10-01-2008,02:00,6,R,ugm-3,21,R,ugm-3,31,R,ugm-3
10-01-2008,03:00,10,R,ugm-3,31,R,ugm-3,46,R,ugm-3
10-01-2008,04:00,4,R,ugm-3,31,R,ugm-3,36,R,ugm-3
10-01-2008,05:00,8,R,ugm-3,32,R,ugm-3,44,R,ugm-3
10-01-2008,06:00,20,R,ugm-3,42,R,ugm-3,73,R,ugm-3
10-01-2008,07:00,124,R,ugm-3,99,R,ugm-3,288,R,ugm-3
10-01-2008,08:00,288,R,ugm-3,151,R,ugm-3,590,R,ugm-3
10-01-2008,09:00,283,R,ugm-3,181,R,ugm-3,613,R,ugm-3
10-01-2008,10:00,365,R,ugm-3,174,R,ugm-3,732,R,ugm-3
10-01-2008,11:00,488,R,ugm-3,185,R,ugm-3,930,R,ugm-3
10-01-2008,12:00,534,R,ugm-3,202,R,ugm-3,1018,R,ugm-3
10-01-2008,13:00,328,R,ugm-3,138,R,ugm-3,638,R,ugm-3
10-01-2008,14:00,320,R,ugm-3,164,R,ugm-3,653,R,ugm-3
10-01-2008,15:00,106,R,ugm-3,94,R,ugm-3,256,R,ugm-3
10-01-2008,16:00,120,R,ugm-3,128,R,ugm-3,311,R,ugm-3
10-01-2008,17:00,156,R,ugm-3,115,R,ugm-3,353,R,ugm-3
10-01-2008,18:00,149,R,ugm-3,97,R,ugm-3,325,R,ugm-3
10-01-2008,19:00,173,R,ugm-3,155,R,ugm-3,418,R,ugm-3
10-01-2008,20:00,69,R,ugm-3,80,R,ugm-3,185,R,ugm-3
10-01-2008,21:00,81,R,ugm-3,73,R,ugm-3,197,R,ugm-3
10-01-2008,22:00,89,R,ugm-3,97,R,ugm-3,233,R,ugm-3
10-01-2008,23:00,79,R,ugm-3,76,R,ugm-3,197,R,ugm-3
10-01-2008,24:00,19,R,ugm-3,53,R,ugm-3,82,R,ugm-3
11-01-2008,01:00,9,R,ugm-3,38,R,ugm-3,52,R,ugm-3
11-01-2008,02:00,23,R,ugm-3,61,R,ugm-3,96,R,ugm-3
11-01-2008,03:00,9,R,ugm-3,32,R,ugm-3,46,R,ugm-3
11-01-2008,04:00,4,R,ugm-3,21,R,ugm-3,27,R,ugm-3
11-01-2008,05:00,13,R,ugm-3,38,R,ugm-3,57,R,ugm-3
11-01-2008,06:00,5,R,ugm-3,23,R,ugm-3,31,R,ugm-3
11-01-2008,07:00,61,R,ugm-3,67,R,ugm-3,160,R,ugm-3
11-01-2008,08:00,195,R,ugm-3,111,R,ugm-3,409,R,ugm-3
11-01-2008,09:00,304,R,ugm-3,166,R,ugm-3,630,R,ugm-3
11-01-2008,10:00,203,R,ugm-3,82,R,ugm-3,392,R,ugm-3
11-01-2008,11:00,184,R,ugm-3,94,R,ugm-3,374,R,ugm-3
11-01-2008,12:00,250,R,ugm-3,164,R,ugm-3,546,R,ugm-3
11-01-2008,13:00,215,R,ugm-3,139,R,ugm-3,468,R,ugm-3
11-01-2008,14:00,239,R,ugm-3,162,R,ugm-3,527,R,ugm-3
11-01-2008,15:00,150,R,ugm-3,109,R,ugm-3,338,R,ugm-3
11-01-2008,16:00,325,R,ugm-3,120,R,ugm-3,617,R,ugm-3
11-01-2008,17:00,383,R,ugm-3,206,R,ugm-3,791,R,ugm-3
11-01-2008,18:00,415,R,ugm-3,130,R,ugm-3,764,R,ugm-3
11-01-2008,19:00,269,R,ugm-3,126,R,ugm-3,537,R,ugm-3
11-01-2008,20:00,110,R,ugm-3,86,R,ugm-3,254,R,ugm-3
11-01-2008,21:00,109,R,ugm-3,151,R,ugm-3,317,R,ugm-3
11-01-2008,22:00,48,R,ugm-3,71,R,ugm-3,143,R,ugm-3
11-01-2008,23:00,68,R,ugm-3,67,R,ugm-3,170,R,ugm-3
11-01-2008,24:00,41,R,ugm-3,48,R,ugm-3,111,R,ugm-3
12-01-2008,01:00,16,R,ugm-3,50,R,ugm-3,74,R,ugm-3
12-01-2008,02:00,24,R,ugm-3,40,R,ugm-3,76,R,ugm-3
12-01-2008,03:00,19,R,ugm-3,32,R,ugm-3,61,R,ugm-3
12-01-2008,04:00,8,R,ugm-3,27,R,ugm-3,38,R,ugm-3
12-01-2008,05:00,8,R,ugm-3,23,R,ugm-3,34,R,ugm-3
12-01-2008,06:00,6,R,ugm-3,23,R,ugm-3,32,R,ugm-3
12-01-2008,07:00,36,R,ugm-3,42,R,ugm-3,97,R,ugm-3
12-01-2008,08:00,54,R,ugm-3,71,R,ugm-3,153,R,ugm-3
12-01-2008,09:00,96,R,ugm-3,96,R,ugm-3,243,R,ugm-3
12-01-2008,10:00,90,R,ugm-3,103,R,ugm-3,241,R,ugm-3
12-01-2008,11:00,255,R,ugm-3,145,R,ugm-3,535,R,ugm-3
12-01-2008,12:00,200,R,ugm-3,134,R,ugm-3,439,R,ugm-3
12-01-2008,13:00,148,R,ugm-3,86,R,ugm-3,311,R,ugm-3
12-01-2008,14:00,106,R,ugm-3,115,R,ugm-3,277,R,ugm-3
12-01-2008,15:00,166,R,ugm-3,96,R,ugm-3,350,R,ugm-3
12-01-2008,16:00,190,R,ugm-3,124,R,ugm-3,414,R,ugm-3
12-01-2008,17:00,189,R,ugm-3,99,R,ugm-3,388,R,ugm-3
12-01-2008,18:00,218,R,ugm-3,132,R,ugm-3,464,R,ugm-3
12-01-2008,19:00,179,R,ugm-3,113,R,ugm-3,386,R,ugm-3
12-01-2008,20:00,163,R,ugm-3,118,R,ugm-3,367,R,ugm-3
12-01-2008,21:00,74,R,ugm-3,92,R,ugm-3,204,R,ugm-3
12-01-2008,22:00,131,R,ugm-3,111,R,ugm-3,311,R,ugm-3
12-01-2008,23:00,114,R,ugm-3,92,R,ugm-3,265,R,ugm-3
12-01-2008,24:00,53,R,ugm-3,73,R,ugm-3,153,R,ugm-3
13-01-2008,01:00,11,R,ugm-3,29,R,ugm-3,46,R,ugm-3
13-01-2008,02:00,19,R,ugm-3,34,R,ugm-3,63,R,ugm-3
13-01-2008,03:00,6,R,ugm-3,23,R,ugm-3,32,R,ugm-3
13-01-2008,04:00,6,R,ugm-3,27,R,ugm-3,36,R,ugm-3
13-01-2008,05:00,3,R,ugm-3,19,R,ugm-3,23,R,ugm-3
13-01-2008,06:00,3,R,ugm-3,17,R,ugm-3,21,R,ugm-3
13-01-2008,07:00,6,R,ugm-3,19,R,ugm-3,29,R,ugm-3
13-01-2008,08:00,4,R,ugm-3,17,R,ugm-3,23,R,ugm-3
13-01-2008,09:00,5,R,ugm-3,15,R,ugm-3,23,R,ugm-3
13-01-2008,10:00,4,R,ugm-3,11,R,ugm-3,17,R,ugm-3
13-01-2008,11:00,5,R,ugm-3,13,R,ugm-3,21,R,ugm-3
13-01-2008,12:00,6,R,ugm-3,13,R,ugm-3,23,R,ugm-3
13-01-2008,13:00,8,R,ugm-3,15,R,ugm-3,27,R,ugm-3
13-01-2008,14:00,5,R,ugm-3,17,R,ugm-3,25,R,ugm-3
13-01-2008,15:00,6,R,ugm-3,19,R,ugm-3,29,R,ugm-3
13-01-2008,16:00,4,R,ugm-3,19,R,ugm-3,25,R,ugm-3
13-01-2008,17:00,6,R,ugm-3,19,R,ugm-3,29,R,ugm-3
13-01-2008,18:00,5,R,ugm-3,15,R,ugm-3,23,R,ugm-3
13-01-2008,19:00,5,R,ugm-3,15,R,ugm-3,23,R,ugm-3
13-01-2008,20:00,6,R,ugm-3,15,R,ugm-3,25,R,ugm-3
13-01-2008,21:00,5,R,ugm-3,13,R,ugm-3,21,R,ugm-3
13-01-2008,22:00,5,R,ugm-3,13,R,ugm-3,21,R,ugm-3
13-01-2008,23:00,3,R,ugm-3,11,R,ugm-3,15,R,ugm-3
13-01-2008,24:00,1,R,ugm-3,10,R,ugm-3,11,R,ugm-3
14-01-2008,01:00,1,R,ugm-3,11,R,ugm-3,13,R,ugm-3
14-01-2008,02:00,1,R,ugm-3,11,R,ugm-3,13,R,ugm-3
14-01-2008,03:00,1,R,ugm-3,13,R,ugm-3,15,R,ugm-3
14-01-2008,04:00,1,R,ugm-3,11,R,ugm-3,13,R,ugm-3
14-01-2008,05:00,1,R,ugm-3,11,R,ugm-3,13,R,ugm-3
14-01-2008,06:00,3,R,ugm-3,15,R,ugm-3,19,R,ugm-3
14-01-2008,07:00,31,R,ugm-3,48,R,ugm-3,96,R,ugm-3
14-01-2008,08:00,105,R,ugm-3,107,R,ugm-3,267,R,ugm-3
14-01-2008,09:00,160,R,ugm-3,117,R,ugm-3,361,R,ugm-3
14-01-2008,10:00,86,R,ugm-3,84,R,ugm-3,216,R,ugm-3
14-01-2008,11:00,76,R,ugm-3,65,R,ugm-3,181,R,ugm-3
14-01-2008,12:00,45,R,ugm-3,74,R,ugm-3,143,R,ugm-3
14-01-2008,13:00,71,R,ugm-3,57,R,ugm-3,166,R,ugm-3
14-01-2008,14:00,126,R,ugm-3,88,R,ugm-3,281,R,ugm-3
14-01-2008,15:00,123,R,ugm-3,120,R,ugm-3,308,R,ugm-3
14-01-2008,16:00,181,R,ugm-3,99,R,ugm-3,376,R,ugm-3
14-01-2008,17:00,256,R,ugm-3,132,R,ugm-3,523,R,ugm-3
14-01-2008,18:00,295,R,ugm-3,126,R,ugm-3,577,R,ugm-3
14-01-2008,19:00,190,R,ugm-3,143,R,ugm-3,434,R,ugm-3
14-01-2008,20:00,134,R,ugm-3,78,R,ugm-3,283,R,ugm-3
14-01-2008,21:00,74,R,ugm-3,92,R,ugm-3,204,R,ugm-3
14-01-2008,22:00,44,R,ugm-3,48,R,ugm-3,115,R,ugm-3
14-01-2008,23:00,43,R,ugm-3,46,R,ugm-3,111,R,ugm-3
14-01-2008,24:00,35,R,ugm-3,40,R,ugm-3,94,R,ugm-3
15-01-2008,01:00,13,R,ugm-3,34,R,ugm-3,53,R,ugm-3
15-01-2008,02:00,14,R,ugm-3,38,R,ugm-3,59,R,ugm-3
15-01-2008,03:00,14,R,ugm-3,38,R,ugm-3,59,R,ugm-3
15-01-2008,04:00,8,R,ugm-3,29,R,ugm-3,40,R,ugm-3
15-01-2008,05:00,10,R,ugm-3,29,R,ugm-3,44,R,ugm-3
15-01-2008,06:00,43,R,ugm-3,50,R,ugm-3,115,R,ugm-3
15-01-2008,07:00,121,R,ugm-3,71,R,ugm-3,256,R,ugm-3
15-01-2008,08:00,238,R,ugm-3,117,R,ugm-3,479,R,ugm-3
15-01-2008,09:00,399,R,ugm-3,157,R,ugm-3,766,R,ugm-3
15-01-2008,10:00,383,R,ugm-3,115,R,ugm-3,699,R,ugm-3
15-01-2008,11:00,240,R,ugm-3,118,R,ugm-3,485,R,ugm-3
15-01-2008,12:00,198,R,ugm-3,103,R,ugm-3,405,R,ugm-3
15-01-2008,13:00,150,R,ugm-3,94,R,ugm-3,323,R,ugm-3
15-01-2008,14:00,84,R,ugm-3,74,R,ugm-3,202,R,ugm-3
15-01-2008,15:00,66,R,ugm-3,88,R,ugm-3,189,R,ugm-3
15-01-2008,16:00,78,R,ugm-3,67,R,ugm-3,185,R,ugm-3
15-01-2008,17:00,155,R,ugm-3,84,R,ugm-3,321,R,ugm-3
15-01-2008,18:00,120,R,ugm-3,113,R,ugm-3,296,R,ugm-3
15-01-2008,19:00,46,R,ugm-3,71,R,ugm-3,141,R,ugm-3
15-01-2008,20:00,24,R,ugm-3,38,R,ugm-3,74,R,ugm-3
15-01-2008,21:00,34,R,ugm-3,40,R,ugm-3,92,R,ugm-3
15-01-2008,22:00,16,R,ugm-3,42,R,ugm-3,67,R,ugm-3
15-01-2008,23:00,14,R,ugm-3,29,R,ugm-3,50,R,ugm-3
15-01-2008,24:00,8,R,ugm-3,17,R,ugm-3,29,R,ugm-3
16-01-2008,01:00,3,R,ugm-3,13,R,ugm-3,17,R,ugm-3
16-01-2008,02:00,8,R,ugm-3,17,R,ugm-3,29,R,ugm-3
16-01-2008,03:00,4,R,ugm-3,10,R,ugm-3,15,R,ugm-3
16-01-2008,04:00,3,R,ugm-3,10,R,ugm-3,13,R,ugm-3
16-01-2008,05:00,1,R,ugm-3,10,R,ugm-3,11,R,ugm-3
16-01-2008,06:00,3,R,ugm-3,11,R,ugm-3,15,R,ugm-3
16-01-2008,07:00,28,R,ugm-3,38,R,ugm-3,80,R,ugm-3
16-01-2008,08:00,93,R,ugm-3,76,R,ugm-3,218,R,ugm-3
16-01-2008,09:00,138,R,ugm-3,105,R,ugm-3,315,R,ugm-3
16-01-2008,10:00,108,R,ugm-3,109,R,ugm-3,273,R,ugm-3
16-01-2008,11:00,109,R,ugm-3,84,R,ugm-3,250,R,ugm-3
16-01-2008,12:00,151,R,ugm-3,109,R,ugm-3,340,R,ugm-3
16-01-2008,13:00,120,R,ugm-3,103,R,ugm-3,287,R,ugm-3
16-01-2008,14:00,116,R,ugm-3,94,R,ugm-3,271,R,ugm-3
16-01-2008,15:00,131,R,ugm-3,74,R,ugm-3,275,R,ugm-3
16-01-2008,16:00,143,R,ugm-3,109,R,ugm-3,327,R,ugm-3
16-01-2008,17:00,110,R,ugm-3,120,R,ugm-3,288,R,ugm-3
16-01-2008,18:00,190,R,ugm-3,111,R,ugm-3,401,R,ugm-3
16-01-2008,19:00,105,R,ugm-3,122,R,ugm-3,283,R,ugm-3
16-01-2008,20:00,158,R,ugm-3,82,R,ugm-3,323,R,ugm-3
16-01-2008,21:00,106,R,ugm-3,141,R,ugm-3,304,R,ugm-3
16-01-2008,22:00,95,R,ugm-3,103,R,ugm-3,248,R,ugm-3
16-01-2008,23:00,75,R,ugm-3,97,R,ugm-3,212,R,ugm-3
16-01-2008,24:00,56,R,ugm-3,59,R,ugm-3,145,R,ugm-3
17-01-2008,01:00,5,R,ugm-3,32,R,ugm-3,40,R,ugm-3
17-01-2008,02:00,14,R,ugm-3,38,R,ugm-3,59,R,ugm-3
17-01-2008,03:00,10,R,ugm-3,36,R,ugm-3,52,R,ugm-3
17-01-2008,04:00,5,R,ugm-3,31,R,ugm-3,38,R,ugm-3
17-01-2008,05:00,23,R,ugm-3,50,R,ugm-3,84,R,ugm-3
17-01-2008,06:00,13,R,ugm-3,40,R,ugm-3,59,R,ugm-3
17-01-2008,07:00,14,R,ugm-3,25,R,ugm-3,46,R,ugm-3
17-01-2008,08:00,19,R,ugm-3,36,R,ugm-3,65,R,ugm-3
17-01-2008,09:00,31,R,ugm-3,50,R,ugm-3,97,R,ugm-3
17-01-2008,10:00,23,R,ugm-3,38,R,ugm-3,73,R,ugm-3
17-01-2008,11:00,31,R,ugm-3,34,R,ugm-3,82,R,ugm-3
17-01-2008,12:00,23,R,ugm-3,38,R,ugm-3,73,R,ugm-3
17-01-2008,13:00,31,R,ugm-3,40,R,ugm-3,88,R,ugm-3
17-01-2008,14:00,19,R,ugm-3,38,R,ugm-3,67,R,ugm-3
17-01-2008,15:00,36,R,ugm-3,53,R,ugm-3,109,R,ugm-3
17-01-2008,16:00,65,R,ugm-3,59,R,ugm-3,159,R,ugm-3
17-01-2008,17:00,186,R,ugm-3,105,R,ugm-3,390,R,ugm-3
17-01-2008,18:00,256,R,ugm-3,115,R,ugm-3,506,R,ugm-3
17-01-2008,19:00,174,R,ugm-3,92,R,ugm-3,357,R,ugm-3
17-01-2008,20:00,115,R,ugm-3,92,R,ugm-3,267,R,ugm-3
17-01-2008,21:00,115,R,ugm-3,80,R,ugm-3,256,R,ugm-3
17-01-2008,22:00,74,R,ugm-3,74,R,ugm-3,187,R,ugm-3
17-01-2008,23:00,79,R,ugm-3,132,R,ugm-3,252,R,ugm-3
17-01-2008,24:00,50,R,ugm-3,65,R,ugm-3,141,R,ugm-3
18-01-2008,01:00,16,R,ugm-3,59,R,ugm-3,84,R,ugm-3
18-01-2008,02:00,23,R,ugm-3,52,R,ugm-3,86,R,ugm-3
18-01-2008,03:00,4,R,ugm-3,32,R,ugm-3,38,R,ugm-3
18-01-2008,04:00,3,R,ugm-3,29,R,ugm-3,32,R,ugm-3
18-01-2008,05:00,5,R,ugm-3,31,R,ugm-3,38,R,ugm-3
18-01-2008,06:00,13,R,ugm-3,42,R,ugm-3,61,R,ugm-3
18-01-2008,07:00,209,R,ugm-3,103,R,ugm-3,422,R,ugm-3
18-01-2008,08:00,230,R,ugm-3,145,R,ugm-3,497,R,ugm-3
18-01-2008,09:00,154,R,ugm-3,115,R,ugm-3,350,R,ugm-3
18-01-2008,10:00,56,R,ugm-3,82,R,ugm-3,168,R,ugm-3
18-01-2008,11:00,23,R,ugm-3,50,R,ugm-3,84,R,ugm-3
18-01-2008,12:00,18,R,ugm-3,34,R,ugm-3,61,R,ugm-3
18-01-2008,13:00,10,R,ugm-3,21,R,ugm-3,36,R,ugm-3
18-01-2008,14:00,18,R,ugm-3,36,R,ugm-3,63,R,ugm-3
18-01-2008,15:00,34,R,ugm-3,44,R,ugm-3,96,R,ugm-3
18-01-2008,16:00,75,R,ugm-3,48,R,ugm-3,162,R,ugm-3
18-01-2008,17:00,25,R,ugm-3,34,R,ugm-3,73,R,ugm-3
18-01-2008,18:00,36,R,ugm-3,63,R,ugm-3,118,R,ugm-3
18-01-2008,19:00,20,R,ugm-3,38,R,ugm-3,69,R,ugm-3
18-01-2008,20:00,25,R,ugm-3,27,R,ugm-3,65,R,ugm-3
18-01-2008,21:00,20,R,ugm-3,34,R,ugm-3,65,R,ugm-3
18-01-2008,22:00,29,R,ugm-3,38,R,ugm-3,82,R,ugm-3
18-01-2008,23:00,25,R,ugm-3,25,R,ugm-3,63,R,ugm-3
18-01-2008,24:00,30,R,ugm-3,52,R,ugm-3,97,R,ugm-3
19-01-2008,01:00,30,R,ugm-3,42,R,ugm-3,88,R,ugm-3
19-01-2008,02:00,28,R,ugm-3,44,R,ugm-3,86,R,ugm-3
19-01-2008,03:00,16,R,ugm-3,21,R,ugm-3,46,R,ugm-3
19-01-2008,04:00,8,R,ugm-3,25,R,ugm-3,36,R,ugm-3
19-01-2008,05:00,9,R,ugm-3,23,R,ugm-3,36,R,ugm-3
19-01-2008,06:00,9,R,ugm-3,27,R,ugm-3,40,R,ugm-3
19-01-2008,07:00,34,R,ugm-3,57,R,ugm-3,109,R,ugm-3
19-01-2008,08:00,76,R,ugm-3,99,R,ugm-3,216,R,ugm-3
19-01-2008,09:00,51,R,ugm-3,109,R,ugm-3,187,R,ugm-3
19-01-2008,10:00,78,R,ugm-3,50,R,ugm-3,168,R,ugm-3
19-01-2008,11:00,74,R,ugm-3,82,R,ugm-3,195,R,ugm-3
19-01-2008,12:00,188,R,ugm-3,107,R,ugm-3,393,R,ugm-3
19-01-2008,13:00,61,R,ugm-3,145,R,ugm-3,239,R,ugm-3
19-01-2008,14:00,121,R,ugm-3,162,R,ugm-3,348,R,ugm-3
19-01-2008,15:00,60,R,ugm-3,74,R,ugm-3,166,R,ugm-3
19-01-2008,16:00,123,R,ugm-3,107,R,ugm-3,294,R,ugm-3
19-01-2008,17:00,61,R,ugm-3,80,R,ugm-3,174,R,ugm-3
19-01-2008,18:00,54,R,ugm-3,90,R,ugm-3,172,R,ugm-3
19-01-2008,19:00,41,R,ugm-3,69,R,ugm-3,132,R,ugm-3
19-01-2008,20:00,28,R,ugm-3,69,R,ugm-3,111,R,ugm-3
19-01-2008,21:00,19,R,ugm-3,42,R,ugm-3,71,R,ugm-3
19-01-2008,22:00,11,R,ugm-3,34,R,ugm-3,52,R,ugm-3
19-01-2008,23:00,44,R,ugm-3,55,R,ugm-3,122,R,ugm-3
19-01-2008,24:00,58,R,ugm-3,86,R,ugm-3,174,R,ugm-3
20-01-2008,01:00,44,R,ugm-3,55,R,ugm-3,122,R,ugm-3
20-01-2008,02:00,21,R,ugm-3,46,R,ugm-3,78,R,ugm-3
20-01-2008,03:00,44,R,ugm-3,55,R,ugm-3,122,R,ugm-3
20-01-2008,04:00,43,R,ugm-3,86,R,ugm-3,151,R,ugm-3
20-01-2008,05:00,18,R,ugm-3,46,R,ugm-3,73,R,ugm-3
20-01-2008,06:00,11,R,ugm-3,31,R,ugm-3,48,R,ugm-3
20-01-2008,07:00,29,R,ugm-3,57,R,ugm-3,101,R,ugm-3
20-01-2008,08:00,21,R,ugm-3,55,R,ugm-3,88,R,ugm-3
20-01-2008,09:00,24,R,ugm-3,65,R,ugm-3,101,R,ugm-3
20-01-2008,10:00,55,R,ugm-3,57,R,ugm-3,141,R,ugm-3
20-01-2008,11:00,100,R,ugm-3,94,R,ugm-3,246,R,ugm-3
20-01-2008,12:00,110,R,ugm-3,113,R,ugm-3,281,R,ugm-3
20-01-2008,13:00,73,R,ugm-3,69,R,ugm-3,180,R,ugm-3